Regional Weather Roundup
Issued by NWS

Home | Current Version | Previous Version | Graphics & Text | Print | Product List | Glossary On
Versions: 1 2 3 4 5 6 7 8 9 10 11 12 13 14 15 16 17 18 19 20 21 22 23 24 25 26 27 28 29 30 31 32 33 34 35 36 37 38 39 40 41
000
ASUS43 KDMX 260607
RWRIA

WEATHER ROUNDUP FOR IOWA
NATIONAL WEATHER SERVICE DES MOINES IA
1200 AM CST FRI DEC 26 2014

NOTE: "FAIR" INDICATES FEW OR NO CLOUDS BELOW 12,000 FEET WITH NO
SIGNIFICANT WEATHER AND/OR OBSTRUCTIONS TO VISIBILITY.

* - THESE STATIONS ARE NOT NWS STATIONS...THUS NOT UNDER NWS
QUALITY CONTROL.  THEY ALSO DO NOT REPORT WEATHER SUCH
AS PRECIPITATION OR FOG.

IAZ001>003-012>014-020>022-031>034-043>046-260700-
   NORTHWEST IOWA

CITY           SKY/WX    TMP DP  RH WIND       PRES   REMARKS
CARROLL *      PTCLDY    32  30  93 S6        29.74S WCI  26
CHEROKEE *     CLOUDY    32  32  99 N8        29.77R WCI  25
DENISON *      CLEAR     30  30 100 CALM      29.73R
LE MARS *      CLOUDY    34  32  93 N9G18     29.80R WCI  26
ORANGE CITY *  CLOUDY    34  30  86 NE13      29.79R FOG     WCI  25
SHELDON *      CLOUDY    32  32 100 N15       29.78R WCI  22
SIOUX CITY     CLOUDY    34  31  88 N15       29.80R WCI  24
6HR MIN TEMP:  31; 6HR MAX TEMP:  35;

SPENCER        CLOUDY    33  30  88 N15       29.78R WCI  23
6HR MIN TEMP:  32; 6HR MAX TEMP:  34;

STORM LAKE *   CLEAR     28  28 100 N10       29.76R WCI  19
$$

IAZ055>058-069>071-079>083-090>094-260700-
   SOUTHWEST IOWA

CITY           SKY/WX    TMP DP  RH WIND       PRES   REMARKS
ATLANTIC *     PTCLDY    34  32  93 S5        29.74S WCI  30
AUDUBON *      CLEAR     28  25  86 CALM      29.74S
CLARINDA *     CLEAR     37  32  81 S7        29.77S WCI  32
COUNCIL BLFS * CLEAR     37  34  87 CALM      29.72S
CRESTON *      CLEAR     41  32  70 S12       29.76S
HARLAN  *      CLEAR     32  32 100 CALM      29.77S
LAMONI         PTCLDY    39  31  72 S9        29.79S WCI  33
6HR MIN TEMP:  39; 6HR MAX TEMP:  45;

RED OAK *      CLEAR     37  32  81 S6        29.74S WCI  33
SHENANDOAH *   CLEAR     41  32  70 S10       29.75S
$$

IAZ047>049-059>061-072>074-084-260700-
   CENTRAL IOWA

CITY           SKY/WX    TMP DP  RH WIND       PRES   REMARKS
AMES           CLOUDY    35  29  78 SE6       29.77S WCI  30
6HR MIN TEMP:  34; 6HR MAX TEMP:  40;

ANKENY *       CLEAR     39  32  75 SE7       29.78S WCI  34
CHARITON *     CLOUDY    41  32  70 S13       29.80S
DES MOINES     CLOUDY    42  31  64 S12       29.78S
6HR MIN TEMP:  41; 6HR MAX TEMP:  45;

GRINNELL*      CLOUDY    39  32  75 SE14      29.81S WCI  31
KNOXVILLE *    MOCLDY    41  30  65 S12       29.79S
MARSHALLTOWN   CLOUDY    37  31  78 SE13      29.79S WCI  29
6HR MIN TEMP:  36; 6HR MAX TEMP:  41;

PELLA *        CLOUDY    40  32  71 S12       29.83R WCI  33
PERRY *          N/A     36  32  87 S9        29.76S WCI  29
$$

IAZ004>006-015-016-023>025-035-036-260700-
   NORTH CENTRAL IOWA

CITY           SKY/WX    TMP DP  RH WIND       PRES   REMARKS
ALGONA *       CLEAR     32  32 100 VRB3      29.77S
CLARION *      CLEAR     34  32  93 SE14      29.76S WCI  24
ESTHERVILLE    CLOUDY    31  30  96 N13       29.78R WCI  21
6HR MIN TEMP:  30; 6HR MAX TEMP:  32;

FORT DODGE *     N/A     30  25  80 CALM      29.76R
MASON CITY     MOCLDY    34  30  85 S9        29.78F WCI  27
6HR MIN TEMP:  32; 6HR MAX TEMP:  36;

FOREST CITY *  PTCLDY    34  30  86 SE7       29.76F WCI  28
IOWA FALLS *     N/A     34  32  93 SE10      29.78F WCI  26
$$

IAZ007>011-017>019-026>030-037>042-050>054-066-260700-
   NORTHEAST IOWA

CITY           SKY/WX    TMP DP  RH WIND       PRES   REMARKS
CEDAR RAPIDS   CLOUDY    39  32  76 S14       29.84F WCI  31
6HR MIN TEMP:  39; 6HR MAX TEMP:  42;

CHARLES CITY * CLEAR     36  32  87 SE9       29.79F WCI  29
CLINTON *      CLOUDY    39  34  81 S14       29.94S WCI  31
DECORAH *      CLEAR     37  32  81 S9        29.81F WCI  31
DUBUQUE        PTCLDY    35  32  88 S13       29.88S WCI  26
6HR MIN TEMP:  35; 6HR MAX TEMP:  38;

MONTICELLO *   CLEAR     37  36  93 SE13      29.87S WCI  29
OELWEIN *      CLEAR     34  32  93 SE12      29.83F WCI  25
WATERLOO       MOCLDY    38  31  76 S13       29.80F WCI  30
6HR MIN TEMP:  37; 6HR MAX TEMP:  43;

$$

IAZ064-065-067-068-078-260700-
   EAST CENTRAL IOWA

CITY           SKY/WX    TMP DP  RH WIND       PRES   REMARKS
DAVENPORT      CLOUDY    41  32  70 S17       29.91F
6HR MIN TEMP:  40; 6HR MAX TEMP:  42;

IOWA CITY      CLOUDY    37  32  82 SE8       29.88F WCI  31
6HR MIN TEMP:  36; 6HR MAX TEMP:  41;

MT. PLEASANT * MOCLDY    41  32  71 S15       29.90S
MUSCATINE *    CLEAR     41  34  75 S14       29.91S
QUAD CITIES    CLOUDY    42  33  70 S15       29.91F
6HR MIN TEMP:  39; 6HR MAX TEMP:  42;

$$

IAZ062-063-075>077-085>089-095>099-260700-
   SOUTHEAST IOWA

CITY           SKY/WX    TMP DP  RH WIND       PRES   REMARKS
BURLINGTON     MOCLDY    41  33  73 S12       29.92S
6HR MIN TEMP:  41; 6HR MAX TEMP:  44;

FAIRFIELD *    MOCLDY    43  32  65 S16G22    29.87S
FORT MADISON * CLEAR     43  36  75 S13G18    29.93S
KEOKUK *       CLEAR     43  34  70 S9        29.92S
OSKALOOSA *      N/A     38  31  74 S17       29.84S WCI  29
CENTERVILLE *  CLEAR     41  32  70 SE10      29.84F
OTTUMWA        MOCLDY    40  30  67 S15       29.84S WCI  32
6HR MIN TEMP:  40; 6HR MAX TEMP:  44;

WASHINGTON *   CLEAR     43  34  70 S16       29.87F
$$

ABBREVIATIONS USED IN REMARKS
   TC - TEMPERATURES IN CELSIUS
  WCI - WIND CHILL INDEX
   HX - HEAT INDEX
  VSB - VISIBILITY
$$



USA.gov is the U.S. government's official web portal to all federal, state and local government web resources and services.